Time,TemperatureF,DewpointF,PressureIn,WindDirection,WindDirectionDegrees,WindSpeedMPH,WindSpeedGustMPH,Humidity,HourlyPrecipIn,Conditions,Clouds,dailyrainin,SoftwareType,DateUTC
2013-08-27 00:05:00,59.9,41.7,29.81,SE,136,0.0,0.0,51,0.00,,,0.00,Wunderground v.1.15,2013-08-27 07:05:00,
2013-08-27 00:10:00,59.8,41.6,29.81,SE,136,0.0,0.0,51,0.00,,,0.00,Wunderground v.1.15,2013-08-27 07:10:00,
2013-08-27 00:16:00,59.6,41.4,29.80,SE,136,0.0,0.0,51,0.00,,,0.00,Wunderground v.1.15,2013-08-27 07:16:00,
2013-08-27 00:21:00,59.2,42.6,29.80,SE,136,0.0,0.0,54,0.00,,,0.00,Wunderground v.1.15,2013-08-27 07:21:00,
2013-08-27 00:27:00,58.9,42.3,29.80,SE,136,0.0,1.0,54,0.00,,,0.00,Wunderground v.1.15,2013-08-27 07:27:00,
2013-08-27 00:33:00,58.3,42.2,29.80,SE,136,0.0,0.0,55,0.00,,,0.00,Wunderground v.1.15,2013-08-27 07:33:00,
2013-08-27 00:38:00,58.0,41.9,29.80,SE,136,0.0,0.0,55,0.00,,,0.00,Wunderground v.1.15,2013-08-27 07:38:00,
2013-08-27 00:43:00,57.5,41.9,29.80,SE,136,0.0,0.0,56,0.00,,,0.00,Wunderground v.1.15,2013-08-27 07:43:00,
2013-08-27 00:49:00,56.9,41.4,29.81,SE,136,0.0,0.0,56,0.00,,,0.00,Wunderground v.1.15,2013-08-27 07:49:00,
2013-08-27 00:55:00,56.9,41.4,29.81,SE,136,0.0,0.0,56,0.00,,,0.00,Wunderground v.1.15,2013-08-27 07:55:00,
2013-08-27 01:00:00,56.7,41.2,29.81,SE,136,0.0,0.0,56,0.00,,,0.00,Wunderground v.1.15,2013-08-27 08:00:00,
2013-08-27 01:05:00,56.6,41.5,29.81,SE,136,0.0,0.0,57,0.00,,,0.00,Wunderground v.1.15,2013-08-27 08:05:00,
2013-08-27 01:11:00,56.5,41.4,29.81,SE,136,0.0,0.0,57,0.00,,,0.00,Wunderground v.1.15,2013-08-27 08:11:00,
2013-08-27 01:17:00,56.0,42.7,29.82,SE,136,0.0,0.0,61,0.00,,,0.00,Wunderground v.1.15,2013-08-27 08:17:00,
2013-08-27 01:22:00,55.7,42.5,29.82,SE,136,0.0,0.0,61,0.00,,,0.00,Wunderground v.1.15,2013-08-27 08:22:00,
2013-08-27 01:27:00,55.4,42.2,29.82,SE,136,0.0,0.0,61,0.00,,,0.00,Wunderground v.1.15,2013-08-27 08:27:00,
2013-08-27 01:33:00,55.1,42.3,29.82,SE,136,0.0,0.0,62,0.00,,,0.00,Wunderground v.1.15,2013-08-27 08:33:00,
2013-08-27 01:38:00,55.0,42.2,29.82,SE,136,0.0,0.0,62,0.00,,,0.00,Wunderground v.1.15,2013-08-27 08:38:00,
2013-08-27 01:43:00,54.7,42.3,29.82,SE,136,0.0,0.0,63,0.00,,,0.00,Wunderground v.1.15,2013-08-27 08:43:00,
2013-08-27 01:49:00,54.5,42.2,29.82,SE,136,0.0,0.0,63,0.00,,,0.00,Wunderground v.1.15,2013-08-27 08:49:00,
2013-08-27 01:55:00,54.4,42.1,29.82,SE,136,0.0,1.0,63,0.00,,,0.00,Wunderground v.1.15,2013-08-27 08:55:00,
2013-08-27 02:00:00,54.2,42.3,29.83,SE,136,0.0,0.0,64,0.00,,,0.00,Wunderground v.1.15,2013-08-27 09:00:00,
2013-08-27 02:05:00,53.9,42.0,29.83,SE,131,1.0,2.0,64,0.00,,,0.00,Wunderground v.1.15,2013-08-27 09:05:00,
2013-08-27 02:10:00,53.8,41.9,29.83,SE,131,0.0,1.0,64,0.00,,,0.00,Wunderground v.1.15,2013-08-27 09:10:00,
2013-08-27 02:15:00,53.6,42.1,29.83,SE,131,0.0,2.0,65,0.00,,,0.00,Wunderground v.1.15,2013-08-27 09:15:00,
2013-08-27 02:20:00,53.5,42.0,29.83,SE,131,0.0,0.0,65,0.00,,,0.00,Wunderground v.1.15,2013-08-27 09:20:00,
2013-08-27 02:25:00,53.5,42.0,29.83,SE,131,0.0,1.0,65,0.00,,,0.00,Wunderground v.1.15,2013-08-27 09:25:00,
2013-08-27 02:30:00,52.9,41.8,29.83,SE,131,1.0,1.0,66,0.00,,,0.00,Wunderground v.1.15,2013-08-27 09:30:00,
2013-08-27 02:35:00,52.8,41.7,29.83,SE,131,0.0,1.0,66,0.00,,,0.00,Wunderground v.1.15,2013-08-27 09:35:00,
2013-08-27 02:40:00,52.5,41.5,29.83,SE,131,0.0,0.0,66,0.00,,,0.00,Wunderground v.1.15,2013-08-27 09:40:00,
2013-08-27 02:45:00,52.2,41.2,29.83,SE,131,0.0,2.0,66,0.00,,,0.00,Wunderground v.1.15,2013-08-27 09:45:00,
2013-08-27 02:50:00,52.0,41.0,29.83,SE,131,0.0,0.0,66,0.00,,,0.00,Wunderground v.1.15,2013-08-27 09:50:00,
2013-08-27 02:56:00,52.0,40.6,29.83,SE,131,0.0,1.0,65,0.00,,,0.00,Wunderground v.1.15,2013-08-27 09:56:00,
2013-08-27 03:00:00,52.0,40.2,29.84,SE,131,0.0,1.0,64,0.00,,,0.00,Wunderground v.1.15,2013-08-27 10:00:00,
2013-08-27 03:05:00,52.0,39.8,29.84,SE,131,0.0,1.0,63,0.00,,,0.00,Wunderground v.1.15,2013-08-27 10:05:00,
2013-08-27 03:11:00,51.9,40.1,29.84,SE,131,0.0,0.0,64,0.00,,,0.00,Wunderground v.1.15,2013-08-27 10:11:00,
2013-08-27 03:15:00,51.9,40.1,29.84,SE,131,0.0,0.0,64,0.00,,,0.00,Wunderground v.1.15,2013-08-27 10:15:00,
2013-08-27 03:20:00,51.6,39.4,29.84,SE,131,1.0,1.0,63,0.00,,,0.00,Wunderground v.1.15,2013-08-27 10:20:00,
2013-08-27 03:26:00,51.4,39.6,29.84,SE,131,0.0,1.0,64,0.00,,,0.00,Wunderground v.1.15,2013-08-27 10:26:00,
2013-08-27 03:31:00,51.3,39.1,29.85,SE,131,0.0,0.0,63,0.00,,,0.00,Wunderground v.1.15,2013-08-27 10:31:00,
2013-08-27 03:36:00,51.1,38.9,29.85,SE,131,0.0,0.0,63,0.00,,,0.00,Wunderground v.1.15,2013-08-27 10:36:00,
2013-08-27 03:42:00,51.0,38.4,29.85,SE,131,0.0,0.0,62,0.00,,,0.00,Wunderground v.1.15,2013-08-27 10:42:00,
2013-08-27 03:47:00,51.0,38.4,29.85,SE,131,0.0,0.0,62,0.00,,,0.00,Wunderground v.1.15,2013-08-27 10:47:00,
2013-08-27 03:52:00,50.8,38.7,29.85,SE,131,0.0,0.0,63,0.00,,,0.00,Wunderground v.1.15,2013-08-27 10:52:00,
2013-08-27 03:57:00,50.7,38.6,29.85,SE,131,0.0,0.0,63,0.00,,,0.00,Wunderground v.1.15,2013-08-27 10:57:00,
2013-08-27 04:02:00,50.5,38.4,29.85,SE,131,0.0,0.0,63,0.00,,,0.00,Wunderground v.1.15,2013-08-27 11:02:00,
2013-08-27 04:07:00,50.4,38.7,29.85,SE,131,0.0,0.0,64,0.00,,,0.00,Wunderground v.1.15,2013-08-27 11:07:00,
2013-08-27 04:12:00,50.2,38.5,29.85,SE,131,0.0,0.0,64,0.00,,,0.00,Wunderground v.1.15,2013-08-27 11:12:00,
2013-08-27 04:17:00,50.2,38.9,29.84,SE,131,0.0,0.0,65,0.00,,,0.00,Wunderground v.1.15,2013-08-27 11:17:00,
2013-08-27 04:22:00,50.1,38.8,29.84,SE,131,0.0,0.0,65,0.00,,,0.00,Wunderground v.1.15,2013-08-27 11:22:00,
2013-08-27 04:27:00,49.9,38.6,29.84,SE,131,0.0,1.0,65,0.00,,,0.00,Wunderground v.1.15,2013-08-27 11:27:00,
2013-08-27 04:32:00,49.8,38.5,29.84,SE,131,0.0,0.0,65,0.00,,,0.00,Wunderground v.1.15,2013-08-27 11:32:00,
2013-08-27 04:37:00,49.6,38.3,29.84,SE,131,0.0,1.0,65,0.00,,,0.00,Wunderground v.1.15,2013-08-27 11:37:00,
2013-08-27 04:42:00,49.5,38.2,29.84,SE,131,0.0,0.0,65,0.00,,,0.00,Wunderground v.1.15,2013-08-27 11:42:00,
2013-08-27 04:47:00,49.4,38.1,29.85,SE,131,0.0,0.0,65,0.00,,,0.00,Wunderground v.1.15,2013-08-27 11:47:00,
2013-08-27 04:52:00,49.2,37.9,29.85,SE,131,0.0,0.0,65,0.00,,,0.00,Wunderground v.1.15,2013-08-27 11:52:00,
2013-08-27 04:57:00,49.1,37.8,29.85,SE,131,0.0,0.0,65,0.00,,,0.00,Wunderground v.1.15,2013-08-27 11:57:00,
2013-08-27 05:02:00,48.9,37.6,29.85,SE,131,0.0,0.0,65,0.00,,,0.00,Wunderground v.1.15,2013-08-27 12:02:00,
2013-08-27 05:07:00,48.9,37.6,29.85,SE,131,0.0,0.0,65,0.00,,,0.00,Wunderground v.1.15,2013-08-27 12:07:00,
2013-08-27 05:13:00,48.8,37.2,29.85,SE,131,0.0,0.0,64,0.00,,,0.00,Wunderground v.1.15,2013-08-27 12:13:00,
2013-08-27 05:19:00,48.6,37.0,29.86,SE,131,0.0,0.0,64,0.00,,,0.00,Wunderground v.1.15,2013-08-27 12:19:00,
2013-08-27 05:24:00,48.2,36.6,29.86,SE,131,0.0,0.0,64,0.00,,,0.00,Wunderground v.1.15,2013-08-27 12:24:00,
2013-08-27 05:29:00,48.0,36.8,29.88,SE,131,0.0,0.0,65,0.00,,,0.00,Wunderground v.1.15,2013-08-27 12:29:00,
2013-08-27 05:34:00,47.7,36.9,29.88,SE,131,0.0,0.0,66,0.00,,,0.00,Wunderground v.1.15,2013-08-27 12:34:00,
2013-08-27 05:39:00,47.4,36.6,29.88,SE,131,0.0,0.0,66,0.00,,,0.00,Wunderground v.1.15,2013-08-27 12:39:00,
2013-08-27 05:44:00,47.3,36.9,29.88,SE,131,0.0,0.0,67,0.00,,,0.00,Wunderground v.1.15,2013-08-27 12:44:00,
2013-08-27 05:49:00,47.1,36.7,29.88,SE,131,0.0,1.0,67,0.00,,,0.00,Wunderground v.1.15,2013-08-27 12:49:00,
2013-08-27 05:54:00,47.0,37.0,29.88,SE,131,0.0,1.0,68,0.00,,,0.00,Wunderground v.1.15,2013-08-27 12:54:00,
2013-08-27 05:59:00,47.0,37.0,29.88,SE,131,0.0,1.0,68,0.00,,,0.00,Wunderground v.1.15,2013-08-27 12:59:00,
2013-08-27 06:04:00,47.0,37.0,29.88,SE,131,0.0,0.0,68,0.00,,,0.00,Wunderground v.1.15,2013-08-27 13:04:00,
2013-08-27 06:09:00,47.0,36.6,29.88,SE,131,0.0,0.0,67,0.00,,,0.00,Wunderground v.1.15,2013-08-27 13:09:00,
2013-08-27 06:14:00,46.8,36.0,29.90,SE,131,0.0,0.0,66,0.00,,,0.00,Wunderground v.1.15,2013-08-27 13:14:00,
2013-08-27 06:19:00,46.7,35.9,29.90,SE,131,0.0,0.0,66,0.00,,,0.00,Wunderground v.1.15,2013-08-27 13:19:00,
2013-08-27 06:24:00,46.4,36.0,29.90,SE,131,0.0,0.0,67,0.00,,,0.00,Wunderground v.1.15,2013-08-27 13:24:00,
2013-08-27 06:29:00,46.2,36.2,29.90,SE,131,0.0,0.0,68,0.00,,,0.00,Wunderground v.1.15,2013-08-27 13:29:00,
2013-08-27 06:34:00,46.2,36.2,29.90,SE,131,0.0,0.0,68,0.00,,,0.00,Wunderground v.1.15,2013-08-27 13:34:00,
2013-08-27 06:39:00,46.2,36.6,29.90,SE,131,0.0,0.0,69,0.00,,,0.00,Wunderground v.1.15,2013-08-27 13:39:00,
2013-08-27 06:44:00,46.4,36.4,29.91,SE,131,0.0,0.0,68,0.00,,,0.00,Wunderground v.1.15,2013-08-27 13:44:00,
2013-08-27 06:49:00,46.4,36.4,29.91,SE,131,0.0,0.0,68,0.00,,,0.00,Wunderground v.1.15,2013-08-27 13:49:00,
2013-08-27 06:54:00,46.4,36.4,29.91,SE,131,0.0,0.0,68,0.00,,,0.00,Wunderground v.1.15,2013-08-27 13:54:00,
2013-08-27 07:00:00,46.5,36.9,29.91,SE,131,0.0,0.0,69,0.00,,,0.00,Wunderground v.1.15,2013-08-27 14:00:00,
2013-08-27 07:05:00,46.7,36.7,29.91,SE,131,0.0,1.0,68,0.00,,,0.00,Wunderground v.1.15,2013-08-27 14:05:00,
2013-08-27 07:10:00,47.0,37.0,29.91,SE,131,0.0,0.0,68,0.00,,,0.00,Wunderground v.1.15,2013-08-27 14:10:00,
2013-08-27 07:15:00,47.1,37.1,29.92,SE,131,0.0,1.0,68,0.00,,,0.00,Wunderground v.1.15,2013-08-27 14:15:00,
2013-08-27 07:20:00,47.4,37.4,29.92,SE,131,0.0,0.0,68,0.00,,,0.00,Wunderground v.1.15,2013-08-27 14:20:00,
2013-08-27 07:25:00,47.7,37.7,29.92,SE,131,0.0,0.0,68,0.00,,,0.00,Wunderground v.1.15,2013-08-27 14:25:00,
2013-08-27 07:30:00,48.0,37.9,29.92,SE,131,0.0,0.0,68,0.00,,,0.00,Wunderground v.1.15,2013-08-27 14:30:00,
2013-08-27 07:35:00,48.3,37.5,29.92,SE,131,0.0,0.0,66,0.00,,,0.00,Wunderground v.1.15,2013-08-27 14:35:00,
2013-08-27 07:40:00,48.8,37.6,29.92,SE,131,0.0,0.0,65,0.00,,,0.00,Wunderground v.1.15,2013-08-27 14:40:00,
2013-08-27 07:45:00,49.2,37.9,29.92,SE,131,0.0,1.0,65,0.00,,,0.00,Wunderground v.1.15,2013-08-27 14:45:00,
2013-08-27 07:50:00,49.6,38.3,29.92,SE,131,0.0,0.0,65,0.00,,,0.00,Wunderground v.1.15,2013-08-27 14:50:00,
2013-08-27 07:55:00,50.4,38.7,29.92,SE,131,0.0,0.0,64,0.00,,,0.00,Wunderground v.1.15,2013-08-27 14:55:00,
2013-08-27 08:00:00,51.3,39.5,29.91,SE,131,0.0,0.0,64,0.00,,,0.00,Wunderground v.1.15,2013-08-27 15:00:00,
2013-08-27 08:05:00,51.9,40.5,29.91,SE,131,0.0,0.0,65,0.00,,,0.00,Wunderground v.1.15,2013-08-27 15:05:00,
2013-08-27 08:10:00,52.5,40.7,29.91,SE,131,0.0,0.0,64,0.00,,,0.00,Wunderground v.1.15,2013-08-27 15:10:00,
2013-08-27 08:15:00,52.9,40.6,29.91,SE,131,0.0,0.0,63,0.00,,,0.00,Wunderground v.1.15,2013-08-27 15:15:00,
2013-08-27 08:20:00,53.3,40.6,29.91,SE,131,0.0,0.0,62,0.00,,,0.00,Wunderground v.1.15,2013-08-27 15:20:00,
2013-08-27 08:25:00,53.6,40.0,29.91,SE,131,0.0,0.0,60,0.00,,,0.00,Wunderground v.1.15,2013-08-27 15:25:00,
2013-08-27 08:30:00,54.2,41.0,29.91,SE,131,0.0,0.0,61,0.00,,,0.00,Wunderground v.1.15,2013-08-27 15:30:00,
2013-08-27 08:35:00,54.7,41.9,29.91,SE,131,0.0,1.0,62,0.00,,,0.00,Wunderground v.1.15,2013-08-27 15:35:00,
2013-08-27 08:40:00,55.0,40.5,29.91,SE,131,0.0,0.0,58,0.00,,,0.00,Wunderground v.1.15,2013-08-27 15:40:00,
2013-08-27 08:46:00,55.3,39.4,29.90,SE,131,0.0,0.0,55,0.00,,,0.00,Wunderground v.1.15,2013-08-27 15:46:00,
2013-08-27 08:51:00,55.7,40.2,29.90,SE,131,0.0,0.0,56,0.00,,,0.00,Wunderground v.1.15,2013-08-27 15:51:00,
2013-08-27 08:56:00,56.3,39.9,29.90,SE,131,0.0,0.0,54,0.00,,,0.00,Wunderground v.1.15,2013-08-27 15:56:00,
2013-08-27 09:01:00,56.9,39.9,29.88,SE,131,0.0,0.0,53,0.00,,,0.00,Wunderground v.1.15,2013-08-27 16:01:00,
2013-08-27 09:06:00,57.5,40.5,29.88,SE,131,0.0,0.0,53,0.00,,,0.00,Wunderground v.1.15,2013-08-27 16:06:00,
2013-08-27 09:11:00,58.3,39.2,29.88,SE,131,0.0,0.0,49,0.00,,,0.00,Wunderground v.1.15,2013-08-27 16:11:00,
2013-08-27 09:16:00,58.9,39.2,29.87,SE,131,0.0,0.0,48,0.00,,,0.00,Wunderground v.1.15,2013-08-27 16:16:00,
2013-08-27 09:21:00,59.5,38.1,29.87,SE,131,0.0,0.0,45,0.00,,,0.00,Wunderground v.1.15,2013-08-27 16:21:00,
2013-08-27 09:26:00,60.1,38.1,29.87,SE,131,0.0,0.0,44,0.00,,,0.00,Wunderground v.1.15,2013-08-27 16:26:00,
2013-08-27 09:31:00,60.7,38.6,29.87,SE,131,0.0,0.0,44,0.00,,,0.00,Wunderground v.1.15,2013-08-27 16:31:00,
2013-08-27 09:36:00,61.3,38.6,29.87,SE,131,0.0,1.0,43,0.00,,,0.00,Wunderground v.1.15,2013-08-27 16:36:00,
2013-08-27 09:41:00,62.0,38.6,29.87,SE,131,0.0,0.0,42,0.00,,,0.00,Wunderground v.1.15,2013-08-27 16:41:00,
2013-08-27 09:46:00,62.6,39.2,29.86,SE,131,0.0,1.0,42,0.00,,,0.00,Wunderground v.1.15,2013-08-27 16:46:00,
2013-08-27 09:51:00,63.2,41.5,29.86,SE,131,0.0,1.0,45,0.00,,,0.00,Wunderground v.1.15,2013-08-27 16:51:00,
2013-08-27 09:56:00,63.7,39.5,29.86,SE,131,0.0,1.0,41,0.00,,,0.00,Wunderground v.1.15,2013-08-27 16:56:00,
2013-08-27 10:01:00,64.3,40.7,29.84,SE,131,0.0,0.0,42,0.00,,,0.00,Wunderground v.1.15,2013-08-27 17:01:00,
2013-08-27 10:07:00,64.8,40.5,29.84,SE,131,0.0,0.0,41,0.00,,,0.00,Wunderground v.1.15,2013-08-27 17:07:00,
2013-08-27 10:12:00,65.3,39.0,29.84,SE,131,0.0,1.0,38,0.00,,,0.00,Wunderground v.1.15,2013-08-27 17:12:00,
2013-08-27 10:17:00,65.8,39.5,29.84,SE,131,0.0,1.0,38,0.00,,,0.00,Wunderground v.1.15,2013-08-27 17:17:00,
2013-08-27 10:22:00,66.4,39.3,29.84,SE,138,0.0,0.0,37,0.00,,,0.00,Wunderground v.1.15,2013-08-27 17:22:00,
2013-08-27 10:27:00,66.9,39.1,29.84,West,275,0.0,2.0,36,0.00,,,0.00,Wunderground v.1.15,2013-08-27 17:27:00,
2013-08-27 10:32:00,67.4,38.0,29.83,West,274,0.0,1.0,34,0.00,,,0.00,Wunderground v.1.15,2013-08-27 17:32:00,
2013-08-27 10:37:00,68.1,39.4,29.83,WNW,284,0.0,1.0,35,0.00,,,0.00,Wunderground v.1.15,2013-08-27 17:37:00,
2013-08-27 10:42:00,68.6,40.6,29.83,NNW,333,0.0,4.0,36,0.00,,,0.00,Wunderground v.1.15,2013-08-27 17:42:00,
2013-08-27 10:47:00,69.1,39.5,29.82,WSW,247,0.0,4.0,34,0.00,,,0.00,Wunderground v.1.15,2013-08-27 17:47:00,
2013-08-27 10:52:00,69.8,40.2,29.82,North,10,0.0,2.0,34,0.00,,,0.00,Wunderground v.1.15,2013-08-27 17:52:00,
2013-08-27 10:57:00,70.4,41.4,29.82,WNW,301,0.0,2.0,35,0.00,,,0.00,Wunderground v.1.15,2013-08-27 17:57:00,
2013-08-27 11:02:00,70.9,41.1,29.80,NE,42,4.0,4.0,34,0.00,,,0.00,Wunderground v.1.15,2013-08-27 18:02:00,
2013-08-27 11:07:00,71.3,40.7,29.80,NE,41,0.0,6.0,33,0.00,,,0.00,Wunderground v.1.15,2013-08-27 18:07:00,
2013-08-27 11:12:00,71.8,38.7,29.80,NE,41,0.0,2.0,30,0.00,,,0.00,Wunderground v.1.15,2013-08-27 18:12:00,
2013-08-27 11:17:00,72.7,37.7,29.81,NE,41,0.0,2.0,28,0.00,,,0.00,Wunderground v.1.15,2013-08-27 18:17:00,
2013-08-27 11:22:00,73.2,39.0,29.81,NNE,13,2.0,7.0,29,0.00,,,0.00,Wunderground v.1.15,2013-08-27 18:22:00,
2013-08-27 11:27:00,73.7,39.5,29.81,NNW,347,0.0,7.0,29,0.00,,,0.00,Wunderground v.1.15,2013-08-27 18:27:00,
2013-08-27 11:32:00,74.0,38.8,29.79,NNW,339,0.0,4.0,28,0.00,,,0.00,Wunderground v.1.15,2013-08-27 18:32:00,
2013-08-27 11:38:00,74.6,36.4,29.79,NW,326,0.0,4.0,25,0.00,,,0.00,Wunderground v.1.15,2013-08-27 18:38:00,
2013-08-27 11:43:00,75.1,37.9,29.79,NW,319,0.0,2.0,26,0.00,,,0.00,Wunderground v.1.15,2013-08-27 18:43:00,
2013-08-27 11:48:00,75.6,39.2,29.79,North,357,4.0,4.0,27,0.00,,,0.00,Wunderground v.1.15,2013-08-27 18:48:00,
2013-08-27 11:53:00,76.3,37.9,29.79,North,354,1.0,4.0,25,0.00,,,0.00,Wunderground v.1.15,2013-08-27 18:53:00,
2013-08-27 11:59:00,77.0,38.5,29.79,NNE,13,1.0,6.0,25,0.00,,,0.00,Wunderground v.1.15,2013-08-27 18:59:00,
2013-08-27 12:04:00,77.4,39.8,29.77,West,280,1.0,7.0,26,0.00,,,0.00,Wunderground v.1.15,2013-08-27 19:04:00,
2013-08-27 12:09:00,77.9,39.2,29.77,West,263,0.0,7.0,25,0.00,,,0.00,Wunderground v.1.15,2013-08-27 19:09:00,
2013-08-27 12:14:00,78.5,40.7,29.77,West,264,0.0,6.0,26,0.00,,,0.00,Wunderground v.1.15,2013-08-27 19:14:00,
2013-08-27 12:19:00,78.6,39.8,29.76,NW,320,0.0,6.0,25,0.00,,,0.00,Wunderground v.1.15,2013-08-27 19:19:00,
2013-08-27 12:24:00,79.0,42.2,29.76,NW,320,1.0,1.0,27,0.00,,,0.00,Wunderground v.1.15,2013-08-27 19:24:00,
2013-08-27 12:29:00,79.8,40.8,29.76,NNW,330,0.0,2.0,25,0.00,,,0.00,Wunderground v.1.15,2013-08-27 19:29:00,
2013-08-27 12:34:00,80.3,41.3,29.75,SSE,161,2.0,4.0,25,0.00,,,0.00,Wunderground v.1.15,2013-08-27 19:34:00,
2013-08-27 12:39:00,80.7,40.5,29.75,NW,319,2.0,6.0,24,0.00,,,0.00,Wunderground v.1.15,2013-08-27 19:39:00,
2013-08-27 12:44:00,80.9,40.7,29.74,West,260,0.0,6.0,24,0.00,,,0.00,Wunderground v.1.15,2013-08-27 19:44:00,
2013-08-27 12:49:00,81.4,41.1,29.74,West,278,0.0,6.0,24,0.00,,,0.00,Wunderground v.1.15,2013-08-27 19:49:00,
2013-08-27 12:54:00,81.8,39.2,29.74,West,265,0.0,1.0,22,0.00,,,0.00,Wunderground v.1.15,2013-08-27 19:54:00,
2013-08-27 12:59:00,82.4,40.9,29.73,WSW,256,2.0,6.0,23,0.00,,,0.00,Wunderground v.1.15,2013-08-27 19:59:00,
2013-08-27 13:04:00,82.6,41.0,29.73,NNW,340,1.0,2.0,23,0.00,,,0.00,Wunderground v.1.15,2013-08-27 20:04:00,
2013-08-27 13:09:00,82.8,42.3,29.73,NW,311,4.0,6.0,24,0.00,,,0.00,Wunderground v.1.15,2013-08-27 20:09:00,
2013-08-27 13:14:00,82.8,41.2,29.74,NW,308,4.0,7.0,23,0.00,,,0.00,Wunderground v.1.15,2013-08-27 20:14:00,
2013-08-27 13:19:00,82.8,42.3,29.74,North,354,1.0,7.0,24,0.00,,,0.00,Wunderground v.1.15,2013-08-27 20:19:00,
2013-08-27 13:24:00,83.0,41.4,29.74,WNW,298,4.0,7.0,23,0.00,,,0.00,Wunderground v.1.15,2013-08-27 20:24:00,
2013-08-27 13:29:00,83.0,41.4,29.74,SSW,205,4.0,7.0,23,0.00,,,0.00,Wunderground v.1.15,2013-08-27 20:29:00,
2013-08-27 13:34:00,83.2,42.6,29.74,West,280,0.0,2.0,24,0.00,,,0.00,Wunderground v.1.15,2013-08-27 20:34:00,
2013-08-27 13:39:00,83.0,41.4,29.74,North,0,0.0,4.0,23,0.00,,,0.00,Wunderground v.1.15,2013-08-27 20:39:00,
2013-08-27 13:45:00,83.2,43.7,29.73,NW,323,0.0,6.0,25,0.00,,,0.00,Wunderground v.1.15,2013-08-27 20:45:00,
2013-08-27 13:50:00,83.0,41.4,29.73,NW,305,0.0,1.0,23,0.00,,,0.00,Wunderground v.1.15,2013-08-27 20:50:00,
2013-08-27 13:55:00,83.0,43.5,29.73,NW,306,2.0,6.0,25,0.00,,,0.00,Wunderground v.1.15,2013-08-27 20:55:00,
2013-08-27 14:00:00,82.6,42.1,29.72,WNW,288,1.0,2.0,24,0.00,,,0.00,Wunderground v.1.15,2013-08-27 21:00:00,
2013-08-27 14:05:00,82.6,42.1,29.72,West,272,0.0,6.0,24,0.00,,,0.00,Wunderground v.1.15,2013-08-27 21:05:00,
2013-08-27 14:10:00,82.6,42.1,29.72,West,275,0.0,6.0,24,0.00,,,0.00,Wunderground v.1.15,2013-08-27 21:10:00,
2013-08-27 14:15:00,82.8,42.3,29.73,West,268,7.0,7.0,24,0.00,,,0.00,Wunderground v.1.15,2013-08-27 21:15:00,
2013-08-27 14:20:00,83.0,42.5,29.73,NW,309,4.0,4.0,24,0.00,,,0.00,Wunderground v.1.15,2013-08-27 21:20:00,
2013-08-27 14:25:00,82.8,43.4,29.73,NW,312,6.0,6.0,25,0.00,,,0.00,Wunderground v.1.15,2013-08-27 21:25:00,
2013-08-27 14:30:00,82.4,42.0,29.72,WNW,284,1.0,1.0,24,0.00,,,0.00,Wunderground v.1.15,2013-08-27 21:30:00,
2013-08-27 14:35:00,82.6,42.1,29.72,West,280,1.0,4.0,24,0.00,,,0.00,Wunderground v.1.15,2013-08-27 21:35:00,
2013-08-27 14:40:00,82.4,40.9,29.72,WNW,299,2.0,6.0,23,0.00,,,0.00,Wunderground v.1.15,2013-08-27 21:40:00,
2013-08-27 14:46:00,82.4,42.0,29.72,West,265,0.0,7.0,24,0.00,,,0.00,Wunderground v.1.15,2013-08-27 21:46:00,
2013-08-27 14:51:00,82.6,42.1,29.72,West,264,2.0,4.0,24,0.00,,,0.00,Wunderground v.1.15,2013-08-27 21:51:00,
2013-08-27 14:56:00,82.8,42.3,29.72,West,278,2.0,8.0,24,0.00,,,0.00,Wunderground v.1.15,2013-08-27 21:56:00,
2013-08-27 15:01:00,82.8,42.3,29.71,WSW,256,2.0,8.0,24,0.00,,,0.00,Wunderground v.1.15,2013-08-27 22:01:00,
2013-08-27 15:07:00,82.8,43.4,29.71,WNW,289,7.0,8.0,25,0.00,,,0.00,Wunderground v.1.15,2013-08-27 22:07:00,
2013-08-27 15:12:00,82.2,42.9,29.71,NW,318,0.0,6.0,25,0.00,,,0.00,Wunderground v.1.15,2013-08-27 22:12:00,
2013-08-27 15:17:00,82.2,44.9,29.72,NW,308,7.0,8.0,27,0.00,,,0.00,Wunderground v.1.15,2013-08-27 22:17:00,
2013-08-27 15:22:00,82.2,43.9,29.72,WSW,253,1.0,7.0,26,0.00,,,0.00,Wunderground v.1.15,2013-08-27 22:22:00,
2013-08-27 15:27:00,82.0,44.7,29.72,West,267,7.0,10.0,27,0.00,,,0.00,Wunderground v.1.15,2013-08-27 22:27:00,
2013-08-27 15:32:00,82.2,43.9,29.71,WNW,289,4.0,8.0,26,0.00,,,0.00,Wunderground v.1.15,2013-08-27 22:32:00,
2013-08-27 15:37:00,82.0,43.7,29.71,WNW,292,2.0,11.0,26,0.00,,,0.00,Wunderground v.1.15,2013-08-27 22:37:00,
2013-08-27 15:42:00,81.8,43.6,29.71,West,271,8.0,9.0,26,0.00,,,0.00,Wunderground v.1.15,2013-08-27 22:42:00,
2013-08-27 15:47:00,81.6,43.4,29.71,West,271,4.0,10.0,26,0.00,,,0.00,Wunderground v.1.15,2013-08-27 22:47:00,
2013-08-27 15:53:00,81.4,43.2,29.71,West,263,9.0,9.0,26,0.00,,,0.00,Wunderground v.1.15,2013-08-27 22:53:00,
2013-08-27 15:58:00,81.4,44.2,29.71,WSW,237,0.0,9.0,27,0.00,,,0.00,Wunderground v.1.15,2013-08-27 22:58:00,
2013-08-27 16:03:00,81.1,43.9,29.71,WNW,292,0.0,9.0,27,0.00,,,0.00,Wunderground v.1.15,2013-08-27 23:03:00,
2013-08-27 16:08:00,80.9,43.8,29.71,West,275,1.0,10.0,27,0.00,,,0.00,Wunderground v.1.15,2013-08-27 23:08:00,
2013-08-27 16:13:00,80.7,43.6,29.71,West,277,8.0,10.0,27,0.00,,,0.00,Wunderground v.1.15,2013-08-27 23:13:00,
2013-08-27 16:19:00,80.5,42.4,29.72,WSW,258,1.0,10.0,26,0.00,,,0.00,Wunderground v.1.15,2013-08-27 23:19:00,
2013-08-27 16:24:00,80.5,43.4,29.72,NW,312,4.0,4.0,27,0.00,,,0.00,Wunderground v.1.15,2013-08-27 23:24:00,
2013-08-27 16:29:00,80.7,43.6,29.72,WSW,251,4.0,6.0,27,0.00,,,0.00,Wunderground v.1.15,2013-08-27 23:29:00,
2013-08-27 16:34:00,80.7,42.6,29.72,WSW,253,1.0,8.0,26,0.00,,,0.00,Wunderground v.1.15,2013-08-27 23:34:00,
2013-08-27 16:39:00,80.7,42.6,29.72,West,261,1.0,8.0,26,0.00,,,0.00,Wunderground v.1.15,2013-08-27 23:39:00,
2013-08-27 16:44:00,80.5,43.4,29.72,SW,229,8.0,8.0,27,0.00,,,0.00,Wunderground v.1.15,2013-08-27 23:44:00,
2013-08-27 16:49:00,80.5,43.4,29.72,West,265,6.0,9.0,27,0.00,,,0.00,Wunderground v.1.15,2013-08-27 23:49:00,
2013-08-27 16:51:00,80.3,43.3,29.72,West,268,9.0,9.0,27,0.00,,,0.00,Wunderground v.1.15,2013-08-27 23:51:00,
2013-08-27 16:56:00,80.1,43.1,29.72,WNW,289,1.0,9.0,27,0.00,,,0.00,Wunderground v.1.15,2013-08-27 23:56:00,
2013-08-27 17:01:00,79.8,43.8,29.73,West,265,4.0,6.0,28,0.00,,,0.00,Wunderground v.1.15,2013-08-28 00:01:00,
2013-08-27 17:06:00,79.6,42.7,29.73,West,261,7.0,9.0,27,0.00,,,0.00,Wunderground v.1.15,2013-08-28 00:06:00,
2013-08-27 17:11:00,79.4,43.4,29.73,SSW,195,1.0,4.0,28,0.00,,,0.00,Wunderground v.1.15,2013-08-28 00:11:00,
2013-08-27 17:16:00,79.0,43.1,29.74,WSW,258,6.0,9.0,28,0.00,,,0.00,Wunderground v.1.15,2013-08-28 00:16:00,
2013-08-27 17:21:00,78.6,41.8,29.74,NW,311,1.0,7.0,27,0.00,,,0.00,Wunderground v.1.15,2013-08-28 00:21:00,
2013-08-27 17:26:00,78.3,42.5,29.74,WSW,253,1.0,10.0,28,0.00,,,0.00,Wunderground v.1.15,2013-08-28 00:26:00,
2013-08-27 17:31:00,77.9,42.2,29.75,WSW,246,0.0,7.0,28,0.00,,,0.00,Wunderground v.1.15,2013-08-28 00:31:00,
2013-08-27 17:36:00,77.7,42.9,29.75,West,261,0.0,7.0,29,0.00,,,0.00,Wunderground v.1.15,2013-08-28 00:36:00,
2013-08-27 17:42:00,77.6,42.8,29.75,WSW,237,2.0,6.0,29,0.00,,,0.00,Wunderground v.1.15,2013-08-28 00:42:00,
2013-08-27 17:47:00,77.4,42.6,29.75,West,272,0.0,6.0,29,0.00,,,0.00,Wunderground v.1.15,2013-08-28 00:47:00,
2013-08-27 17:52:00,77.2,44.2,29.75,West,263,0.0,2.0,31,0.00,,,0.00,Wunderground v.1.15,2013-08-28 00:52:00,
2013-08-27 17:57:00,77.0,43.2,29.75,WSW,257,0.0,4.0,30,0.00,,,0.00,Wunderground v.1.15,2013-08-28 00:57:00,
2013-08-27 18:02:00,76.8,43.9,29.76,WSW,257,0.0,1.0,31,0.00,,,0.00,Wunderground v.1.15,2013-08-28 01:02:00,
2013-08-27 18:07:00,76.7,43.8,29.76,WSW,241,0.0,2.0,31,0.00,,,0.00,Wunderground v.1.15,2013-08-28 01:07:00,
2013-08-27 18:12:00,76.5,43.6,29.76,WSW,241,0.0,1.0,31,0.00,,,0.00,Wunderground v.1.15,2013-08-28 01:12:00,
2013-08-27 18:17:00,76.3,43.4,29.76,North,0,6.0,6.0,31,0.00,,,0.00,Wunderground v.1.15,2013-08-28 01:17:00,
2013-08-27 18:22:00,76.0,44.0,29.76,NW,311,1.0,4.0,32,0.00,,,0.00,Wunderground v.1.15,2013-08-28 01:22:00,
2013-08-27 18:27:00,75.6,43.7,29.76,West,275,2.0,8.0,32,0.00,,,0.00,Wunderground v.1.15,2013-08-28 01:27:00,
2013-08-27 18:32:00,75.4,44.3,29.76,West,265,0.0,6.0,33,0.00,,,0.00,Wunderground v.1.15,2013-08-28 01:32:00,
2013-08-27 18:38:00,75.1,44.0,29.76,WNW,289,4.0,9.0,33,0.00,,,0.00,Wunderground v.1.15,2013-08-28 01:38:00,
2013-08-27 18:43:00,74.9,43.8,29.76,West,268,0.0,6.0,33,0.00,,,0.00,Wunderground v.1.15,2013-08-28 01:43:00,
2013-08-27 18:48:00,74.7,43.7,29.78,WNW,287,2.0,6.0,33,0.00,,,0.00,Wunderground v.1.15,2013-08-28 01:48:00,
2013-08-27 18:53:00,74.6,44.4,29.78,West,277,0.0,2.0,34,0.00,,,0.00,Wunderground v.1.15,2013-08-28 01:53:00,
2013-08-27 18:58:00,74.4,43.4,29.78,West,277,0.0,2.0,33,0.00,,,0.00,Wunderground v.1.15,2013-08-28 01:58:00,
2013-08-27 19:03:00,74.4,43.4,29.79,West,277,0.0,0.0,33,0.00,,,0.00,Wunderground v.1.15,2013-08-28 02:03:00,
2013-08-27 19:08:00,74.4,43.4,29.79,West,265,0.0,1.0,33,0.00,,,0.00,Wunderground v.1.15,2013-08-28 02:08:00,
2013-08-27 19:13:00,74.0,44.6,29.79,West,267,0.0,0.0,35,0.00,,,0.00,Wunderground v.1.15,2013-08-28 02:13:00,
2013-08-27 19:19:00,73.7,44.3,29.76,NNE,32,4.0,4.0,35,0.00,,,0.00,Wunderground v.1.15,2013-08-28 02:19:00,
2013-08-27 19:24:00,73.5,44.2,29.76,NE,52,0.0,6.0,35,0.00,,,0.00,Wunderground v.1.15,2013-08-28 02:24:00,
2013-08-27 19:29:00,73.0,45.2,29.77,ENE,73,4.0,6.0,37,0.00,,,0.00,Wunderground v.1.15,2013-08-28 02:29:00,
2013-08-27 19:34:00,72.7,44.2,29.77,ENE,59,4.0,8.0,36,0.00,,,0.00,Wunderground v.1.15,2013-08-28 02:34:00,
2013-08-27 19:39:00,72.5,44.0,29.77,ENE,68,2.0,8.0,36,0.00,,,0.00,Wunderground v.1.15,2013-08-28 02:39:00,
2013-08-27 19:44:00,72.3,44.6,29.79,East,90,2.0,7.0,37,0.00,,,0.00,Wunderground v.1.15,2013-08-28 02:44:00,
2013-08-27 19:49:00,72.0,45.0,29.79,NE,56,0.0,7.0,38,0.00,,,0.00,Wunderground v.1.15,2013-08-28 02:49:00,
2013-08-27 19:55:00,71.8,44.1,29.79,ENE,58,0.0,2.0,37,0.00,,,0.00,Wunderground v.1.15,2013-08-28 02:55:00,
2013-08-27 20:00:00,71.8,44.1,29.79,East,88,4.0,4.0,37,0.00,,,0.00,Wunderground v.1.15,2013-08-28 03:00:00,
2013-08-27 20:05:00,71.8,44.8,29.79,ENE,78,0.0,4.0,38,0.00,,,0.00,Wunderground v.1.15,2013-08-28 03:05:00,
2013-08-27 20:10:00,71.6,44.6,29.79,ENE,78,0.0,1.0,38,0.00,,,0.00,Wunderground v.1.15,2013-08-28 03:10:00,
2013-08-27 20:15:00,71.5,44.5,29.76,ESE,116,0.0,7.0,38,0.00,,,0.00,Wunderground v.1.15,2013-08-28 03:15:00,
2013-08-27 20:20:00,71.5,44.5,29.76,East,93,8.0,8.0,38,0.00,,,0.00,Wunderground v.1.15,2013-08-28 03:20:00,
2013-08-27 20:26:00,71.5,44.5,29.76,East,100,0.0,9.0,38,0.00,,,0.00,Wunderground v.1.15,2013-08-28 03:26:00,
2013-08-27 20:31:00,71.5,44.5,29.77,East,100,0.0,3.0,38,0.00,,,0.00,Wunderground v.1.15,2013-08-28 03:31:00,
2013-08-27 20:36:00,71.3,44.4,29.77,East,100,0.0,3.0,38,0.00,,,0.00,Wunderground v.1.15,2013-08-28 03:36:00,
2013-08-27 20:41:00,71.1,46.2,29.77,East,100,0.0,0.0,41,0.00,,,0.00,Wunderground v.1.15,2013-08-28 03:41:00,
2013-08-27 20:46:00,70.9,46.0,29.77,East,100,0.0,0.0,41,0.00,,,0.00,Wunderground v.1.15,2013-08-28 03:46:00,
2013-08-27 20:51:00,70.6,45.7,29.77,East,100,0.0,0.0,41,0.00,,,0.00,Wunderground v.1.15,2013-08-28 03:51:00,
2013-08-27 20:56:00,70.3,45.5,29.77,East,100,0.0,1.0,41,0.00,,,0.00,Wunderground v.1.15,2013-08-28 03:56:00,
2013-08-27 21:01:00,70.1,44.0,29.78,SE,131,0.0,1.0,39,0.00,,,0.00,Wunderground v.1.15,2013-08-28 04:01:00,
2013-08-27 21:02:00,69.9,44.5,29.78,SE,131,0.0,1.0,40,0.00,,,0.00,Wunderground v.1.15,2013-08-28 04:02:00,
2013-08-27 21:07:00,69.8,44.4,29.78,SE,130,0.0,1.0,40,0.00,,,0.00,Wunderground v.1.15,2013-08-28 04:07:00,
2013-08-27 21:13:00,69.6,45.5,29.78,SW,227,0.0,1.0,42,0.00,,,0.00,Wunderground v.1.15,2013-08-28 04:13:00,
2013-08-27 21:15:00,69.6,44.8,29.75,SW,227,0.0,1.0,41,0.00,,,0.00,Wunderground v.1.15,2013-08-28 04:15:00,
2013-08-27 21:20:00,69.3,45.2,29.75,SW,227,0.0,0.0,42,0.00,,,0.00,Wunderground v.1.15,2013-08-28 04:20:00,
2013-08-27 21:25:00,68.9,45.5,29.75,SW,223,0.0,1.0,43,0.00,,,0.00,Wunderground v.1.15,2013-08-28 04:25:00,
2013-08-27 21:30:00,68.1,44.7,29.76,SW,222,0.0,0.0,43,0.00,,,0.00,Wunderground v.1.15,2013-08-28 04:30:00,
2013-08-27 21:35:00,67.6,44.9,29.76,SW,223,0.0,0.0,44,0.00,,,0.00,Wunderground v.1.15,2013-08-28 04:35:00,
2013-08-27 21:40:00,67.4,44.7,29.76,SW,223,0.0,0.0,44,0.00,,,0.00,Wunderground v.1.15,2013-08-28 04:40:00,
2013-08-27 21:45:00,67.4,44.7,29.77,SW,222,0.0,1.0,44,0.00,,,0.00,Wunderground v.1.15,2013-08-28 04:45:00,
2013-08-27 21:50:00,66.9,44.9,29.77,SE,137,0.0,0.0,45,0.00,,,0.00,Wunderground v.1.15,2013-08-28 04:50:00,
2013-08-27 21:55:00,66.4,45.0,29.77,SE,137,0.0,0.0,46,0.00,,,0.00,Wunderground v.1.15,2013-08-28 04:55:00,
2013-08-27 22:00:00,66.1,45.3,29.78,SE,137,0.0,0.0,47,0.00,,,0.00,Wunderground v.1.15,2013-08-28 05:00:00,
2013-08-27 22:05:00,65.6,45.4,29.78,SE,137,0.0,0.0,48,0.00,,,0.00,Wunderground v.1.15,2013-08-28 05:05:00,
2013-08-27 22:10:00,65.2,45.5,29.78,SE,137,0.0,0.0,49,0.00,,,0.00,Wunderground v.1.15,2013-08-28 05:10:00,
2013-08-27 22:15:00,64.8,45.2,29.75,SE,137,0.0,0.0,49,0.00,,,0.00,Wunderground v.1.15,2013-08-28 05:15:00,
2013-08-27 22:20:00,64.5,44.9,29.75,SE,137,0.0,1.0,49,0.00,,,0.00,Wunderground v.1.15,2013-08-28 05:20:00,
2013-08-27 22:25:00,64.3,45.3,29.75,SE,137,0.0,1.0,50,0.00,,,0.00,Wunderground v.1.15,2013-08-28 05:25:00,
2013-08-27 22:30:00,63.9,45.4,29.77,SE,137,0.0,0.0,51,0.00,,,0.00,Wunderground v.1.15,2013-08-28 05:30:00,
2013-08-27 22:35:00,63.5,45.0,29.77,SE,137,0.0,0.0,51,0.00,,,0.00,Wunderground v.1.15,2013-08-28 05:35:00,
2013-08-27 22:41:00,63.4,45.5,29.77,SE,137,0.0,0.0,52,0.00,,,0.00,Wunderground v.1.15,2013-08-28 05:41:00,
2013-08-27 22:46:00,63.1,45.2,29.77,SE,137,0.0,0.0,52,0.00,,,0.00,Wunderground v.1.15,2013-08-28 05:46:00,
2013-08-27 22:51:00,62.7,44.8,29.77,SE,137,0.0,0.0,52,0.00,,,0.00,Wunderground v.1.15,2013-08-28 05:51:00,
2013-08-27 22:56:00,62.4,45.0,29.77,SE,137,0.0,1.0,53,0.00,,,0.00,Wunderground v.1.15,2013-08-28 05:56:00,
2013-08-27 23:01:00,62.0,45.2,29.77,SE,137,0.0,0.0,54,0.00,,,0.00,Wunderground v.1.15,2013-08-28 06:01:00,
2013-08-27 23:06:00,61.6,45.3,29.77,SE,137,0.0,0.0,55,0.00,,,0.00,Wunderground v.1.15,2013-08-28 06:06:00,
2013-08-27 23:11:00,61.3,45.0,29.77,SE,137,0.0,0.0,55,0.00,,,0.00,Wunderground v.1.15,2013-08-28 06:11:00,
2013-08-27 23:16:00,61.2,45.4,29.75,SE,137,0.0,1.0,56,0.00,,,0.00,Wunderground v.1.15,2013-08-28 06:16:00,
2013-08-27 23:21:00,61.0,45.2,29.75,SE,126,2.0,4.0,56,0.00,,,0.00,Wunderground v.1.15,2013-08-28 06:21:00,
2013-08-27 23:26:00,60.9,44.6,29.75,ESE,119,0.0,4.0,55,0.00,,,0.00,Wunderground v.1.15,2013-08-28 06:26:00,
2013-08-27 23:31:00,60.9,44.1,29.75,ESE,119,0.0,1.0,54,0.00,,,0.00,Wunderground v.1.15,2013-08-28 06:31:00,
2013-08-27 23:36:00,60.9,44.1,29.75,ESE,119,0.0,1.0,54,0.00,,,0.00,Wunderground v.1.15,2013-08-28 06:36:00,
2013-08-27 23:41:00,60.7,43.9,29.75,ESE,119,1.0,1.0,54,0.00,,,0.00,Wunderground v.1.15,2013-08-28 06:41:00,
2013-08-27 23:46:00,60.7,44.4,29.75,ESE,119,0.0,2.0,55,0.00,,,0.00,Wunderground v.1.15,2013-08-28 06:46:00,
2013-08-27 23:51:00,60.5,44.2,29.75,ESE,119,0.0,1.0,55,0.00,,,0.00,Wunderground v.1.15,2013-08-28 06:51:00,
2013-08-27 23:57:00,60.4,44.2,29.75,ESE,119,0.0,1.0,55,0.00,,,0.00,Wunderground v.1.15,2013-08-28 06:57:00,